This is the latest recevied weather packets stored in our database for station/object KI7JYE. If no packets are shown the sender has not sent any weather packets the latest 10 day(s).
| Time | Temp. | Humidity | Pressure | Rain* | Wind** | Luminosity | Snow |
|---|---|---|---|---|---|---|---|
| 1777596989 | 27.22° C | 34% | 1012.9 hPa | 0 mm | - | 184 W/m² | - |
| 1777596686 | 27.22° C | 32% | 1013 hPa | 0 mm | - | 196 W/m² | - |
| 1777596383 | 27.22° C | 31% | 1013.1 hPa | 0 mm | - | 212 W/m² | - |
| 1777596080 | 27.78° C | 33% | 1012.9 hPa | 0 mm | - | 229 W/m² | - |
| 1777595776 | 27.78° C | 34% | 1012.8 hPa | 0 mm | - | 245 W/m² | - |
| 1777595471 | 27.78° C | 30% | 1012.9 hPa | 0 mm | - | 251 W/m² | - |
| 1777595168 | 27.78° C | 30% | 1012.8 hPa | 0 mm | - | 282 W/m² | - |
| 1777594864 | 27.22° C | 31% | 1013.1 hPa | 0 mm | - | 302 W/m² | - |
| 1777594561 | 27.22° C | 32% | 1013.1 hPa | 0 mm | - | 314 W/m² | - |
| 1777594257 | 27.78° C | 31% | 1013.3 hPa | 0 mm | - | 331 W/m² | - |
| 1777593953 | 27.22° C | 31% | 1013.2 hPa | 0 mm | - | 345 W/m² | - |
| 1777593649 | 27.78° C | 34% | 1013.2 hPa | 0 mm | - | 354 W/m² | - |
| 1777593345 | 28.33° C | 30% | 1013.4 hPa | 0 mm | - | 359 W/m² | - |
| 1777593044 | 27.22° C | 31% | 1013.4 hPa | 0 mm | - | 308 W/m² | - |
| 1777592744 | 27.22° C | 32% | 1013.4 hPa | 0 mm | - | 314 W/m² | - |
| 1777592440 | 27.22° C | 30% | 1013.5 hPa | 0 mm | - | 381 W/m² | - |
| 1777592135 | 27.22° C | 30% | 1013.6 hPa | 0 mm | - | 403 W/m² | - |
| 1777591833 | 27.22° C | 31% | 1013.4 hPa | 0 mm | - | 409 W/m² | - |
| 1777591528 | 27.22° C | 32% | 1013.5 hPa | 0 mm | - | 422 W/m² | - |
| 1777591225 | 27.78° C | 31% | 1013.7 hPa | 0 mm | - | 446 W/m² | - |
| 1777590920 | 27.78° C | 28% | 1013.7 hPa | 0 mm | - | 465 W/m² | - |
| 1777590616 | 27.78° C | 30% | 1013.8 hPa | 0 mm | - | 468 W/m² | - |
| 1777590312 | 27.22° C | 28% | 1014.1 hPa | 0 mm | - | 471 W/m² | - |
| 1777590010 | 26.67° C | 31% | 1014.2 hPa | 0 mm | - | 480 W/m² | - |
| 1777589705 | 27.22° C | 30% | 1014.1 hPa | 0 mm | - | 505 W/m² | - |
* Rain latest hour (hover to see other rain measurements)
** Current wind speed in m/s (hover to see current wind gust speed)